TimeEST,TemperatureF,Dew PointF,Humidity,Sea Level PressureIn,VisibilityMPH,Wind Direction,Wind SpeedMPH,Gust SpeedMPH,PrecipitationIn,Events,Conditions,WindDirDegrees,DateUTC
12:19 AM,23.0,12.2,63,30.17,7.0,East,6.9,-,N/A,,Overcast,90,2013-01-24 05:19:00
12:41 AM,23.0,15.8,74,30.15,7.0,East,5.8,-,N/A,,Overcast,100,2013-01-24 05:41:00
1:02 AM,23.0,15.8,74,30.14,3.0,East,4.6,-,N/A,,Overcast,80,2013-01-24 06:02:00
1:23 AM,23.0,17.6,80,30.13,3.0,East,3.5,-,N/A,,Overcast,80,2013-01-24 06:23:00
1:45 AM,21.2,17.6,86,30.12,3.0,East,5.8,-,N/A,,Overcast,80,2013-01-24 06:45:00
2:06 AM,21.2,17.6,86,30.12,3.0,East,5.8,-,N/A,,Overcast,80,2013-01-24 07:06:00
2:28 AM,21.2,17.6,86,30.11,5.0,ENE,4.6,-,N/A,,Overcast,60,2013-01-24 07:28:00
2:49 AM,21.2,17.6,86,30.10,1.8,ENE,5.8,-,N/A,,Overcast,60,2013-01-24 07:49:00
3:10 AM,21.2,19.4,93,30.10,1.2,ENE,3.5,-,N/A,,Overcast,60,2013-01-24 08:10:00
3:32 AM,21.2,19.4,93,30.09,1.5,NE,4.6,-,N/A,,Overcast,40,2013-01-24 08:32:00
3:53 AM,21.2,19.4,93,30.08,1.5,NE,5.8,-,N/A,,Overcast,40,2013-01-24 08:53:00
4:14 AM,21.2,19.4,93,30.08,1.8,NNE,6.9,-,N/A,,Overcast,30,2013-01-24 09:14:00
4:36 AM,21.2,19.4,93,30.08,2.0,NE,6.9,-,N/A,,Overcast,50,2013-01-24 09:36:00
4:57 AM,21.2,19.4,93,30.09,2.5,NNE,6.9,-,N/A,,Overcast,30,2013-01-24 09:57:00
5:18 AM,21.2,19.4,93,30.10,3.0,NNE,8.1,-,N/A,,Overcast,30,2013-01-24 10:18:00
5:40 AM,21.2,19.4,93,30.11,3.0,NE,9.2,16.1,N/A,,Overcast,40,2013-01-24 10:40:00
6:01 AM,21.2,19.4,93,30.12,5.0,NNE,8.1,17.3,N/A,,Overcast,30,2013-01-24 11:01:00
6:22 AM,21.2,19.4,93,30.14,7.0,North,8.1,-,N/A,,Overcast,10,2013-01-24 11:22:00
6:43 AM,19.4,17.6,93,30.15,10.0,NNE,11.5,19.6,N/A,,Mostly Cloudy,20,2013-01-24 11:43:00
7:05 AM,19.4,17.6,93,30.18,3.0,North,11.5,18.4,N/A,,Overcast,10,2013-01-24 12:05:00
7:26 AM,19.4,14.0,80,30.18,10.0,North,10.4,-,N/A,,Mostly Cloudy,10,2013-01-24 12:26:00
8:30 AM,19.4,12.2,74,30.23,10.0,North,9.2,16.1,N/A,,Clear,360,2013-01-24 13:30:00
8:51 AM,21.2,12.2,68,30.24,10.0,North,10.4,17.3,N/A,,Clear,350,2013-01-24 13:51:00
9:12 AM,21.2,12.2,68,30.26,10.0,North,12.7,19.6,N/A,,Clear,350,2013-01-24 14:12:00
9:33 AM,21.2,12.2,68,30.28,10.0,NNW,9.2,17.3,N/A,,Clear,340,2013-01-24 14:33:00
9:55 AM,21.2,10.4,63,30.29,10.0,North,12.7,-,N/A,,Clear,350,2013-01-24 14:55:00
10:16 AM,23.0,12.2,63,30.30,10.0,NNW,12.7,-,N/A,,Clear,340,2013-01-24 15:16:00
10:37 AM,23.0,12.2,63,30.31,10.0,NNW,11.5,16.1,N/A,,Clear,340,2013-01-24 15:37:00
10:58 AM,23.0,12.2,63,30.31,10.0,NNW,12.7,-,N/A,,Scattered Clouds,340,2013-01-24 15:58:00
11:20 AM,23.0,12.2,63,30.31,10.0,NNW,13.8,18.4,N/A,,Clear,330,2013-01-24 16:20:00
11:41 AM,24.8,12.2,59,30.32,10.0,NNW,16.1,19.6,N/A,,Scattered Clouds,340,2013-01-24 16:41:00
11:58 AM,24.8,12.2,59,30.33,10.0,NW,13.8,20.7,N/A,,Scattered Clouds,320,2013-01-24 16:58:00
12:55 PM,26.6,14.0,59,30.33,10.0,NNW,13.8,20.7,N/A,,Scattered Clouds,330,2013-01-24 17:55:00
1:16 PM,26.6,14.0,59,30.34,10.0,NW,13.8,20.7,N/A,,Scattered Clouds,320,2013-01-24 18:16:00
1:58 PM,26.6,14.0,59,30.35,10.0,NW,11.5,21.9,N/A,,Scattered Clouds,310,2013-01-24 18:58:00
2:20 PM,28.4,15.8,59,30.35,10.0,NW,13.8,20.7,N/A,,Scattered Clouds,320,2013-01-24 19:20:00
2:40 PM,28.4,14.0,55,30.36,10.0,NW,19.6,26.5,N/A,,Scattered Clouds,320,2013-01-24 19:40:00
3:02 PM,26.6,10.4,51,30.36,10.0,NW,18.4,27.6,N/A,,Clear,320,2013-01-24 20:02:00
3:23 PM,28.4,10.4,47,30.38,10.0,NNW,13.8,20.7,N/A,,Scattered Clouds,340,2013-01-24 20:23:00
4:06 PM,28.4,6.8,40,30.40,10.0,NNW,13.8,23.0,N/A,,Clear,340,2013-01-24 21:06:00
4:27 PM,28.4,8.6,43,30.41,10.0,NNW,13.8,23.0,N/A,,Scattered Clouds,330,2013-01-24 21:27:00
4:48 PM,28.4,6.8,40,30.41,10.0,NNW,16.1,24.2,N/A,,Clear,340,2013-01-24 21:48:00
5:09 PM,28.4,8.6,43,30.43,10.0,NNW,8.1,-,N/A,,Clear,340,2013-01-24 22:09:00
5:31 PM,26.6,5.0,40,30.43,10.0,NW,13.8,18.4,N/A,,Clear,320,2013-01-24 22:31:00
5:52 PM,26.6,6.8,43,30.45,10.0,NW,10.4,17.3,N/A,,Clear,320,2013-01-24 22:52:00
6:13 PM,26.6,6.8,43,30.45,10.0,NW,9.2,-,N/A,,Clear,320,2013-01-24 23:13:00
6:34 PM,26.6,6.8,43,30.46,10.0,NW,13.8,19.6,N/A,,Clear,320,2013-01-24 23:34:00
6:56 PM,26.6,6.8,43,30.47,10.0,NW,12.7,19.6,N/A,,Clear,320,2013-01-24 23:56:00
7:17 PM,26.6,8.6,47,30.47,10.0,NW,13.8,20.7,N/A,,Clear,320,2013-01-25 00:17:00
7:38 PM,26.6,6.8,43,30.48,10.0,NW,8.1,16.1,N/A,,Clear,310,2013-01-25 00:38:00
7:59 PM,28.4,8.6,43,30.49,10.0,NW,9.2,-,N/A,,Clear,320,2013-01-25 00:59:00
8:20 PM,26.6,8.6,47,30.49,10.0,NW,12.7,21.9,N/A,,Clear,310,2013-01-25 01:20:00
8:42 PM,26.6,8.6,47,30.49,10.0,NW,15.0,21.9,N/A,,Clear,310,2013-01-25 01:42:00
9:24 PM,26.6,8.6,47,30.49,10.0,NNW,13.8,17.3,N/A,,Clear,330,2013-01-25 02:24:00
9:45 PM,26.6,10.4,51,30.49,10.0,NW,10.4,18.4,N/A,,Clear,320,2013-01-25 02:45:00
10:07 PM,26.6,8.6,47,30.50,10.0,NW,10.4,17.3,N/A,,Clear,320,2013-01-25 03:07:00
10:28 PM,26.6,8.6,47,30.49,10.0,NW,13.8,18.4,N/A,,Clear,320,2013-01-25 03:28:00
10:49 PM,26.6,8.6,47,30.50,10.0,NW,10.4,-,N/A,,Clear,320,2013-01-25 03:49:00
11:11 PM,26.6,8.6,47,30.50,10.0,NW,8.1,-,N/A,,Clear,310,2013-01-25 04:11:00
11:32 PM,26.6,8.6,47,30.50,10.0,NW,8.1,-,N/A,,Clear,310,2013-01-25 04:32:00
11:53 PM,26.6,8.6,47,30.51,10.0,NW,9.2,-,N/A,,Clear,310,2013-01-25 04:53:00